contact:dominique.lefevre@mio.osupytheas.fr, maurice.libes@osupytheas.fr, didier.mallarino@osupytheas.fr
Project:EMSO http://www.emso-fr.org/EMSO-France
Depth: 2436.0 m
Title:EMSO Ligure Ouest : Data MII capteur MICROCAT
DateTime_Computer,Latitude,Longitude,Temperature,Conductivity,Pressure,DateTime_Instrument
DateTime_Computer,Latitude,Longitude,degC,S m-1,dbar,DateTime_Instrument
2021-11-11T00:00:13Z,42.805,6.029,13.2991,4.60011,2470.544,2021-11-11T02:01:38Z
2021-11-11T00:03:16Z,42.805,6.029,13.2993,4.60009,2470.52,2021-11-11T02:04:42Z
2021-11-11T00:06:19Z,42.805,6.029,13.2994,4.60009,2470.46,2021-11-11T02:07:45Z
2021-11-11T00:09:22Z,42.805,6.029,13.2991,4.60011,2470.483,2021-11-11T02:10:48Z
2021-11-11T00:12:25Z,42.805,6.029,13.2989,4.60011,2470.437,2021-11-11T02:13:51Z
2021-11-11T00:15:28Z,42.805,6.029,13.2992,4.60011,2470.46,2021-11-11T02:16:54Z
2021-11-11T00:18:32Z,42.805,6.029,13.2991,4.60009,2470.474,2021-11-11T02:19:57Z
2021-11-11T00:21:35Z,42.805,6.029,13.2990,4.60009,2470.46,2021-11-11T02:23:00Z
2021-11-11T00:24:38Z,42.805,6.029,13.2990,4.60011,2470.46,2021-11-11T02:26:03Z
2021-11-11T00:27:41Z,42.805,6.029,13.2991,4.60009,2470.483,2021-11-11T02:29:07Z
2021-11-11T00:30:44Z,42.805,6.029,13.2993,4.60010,2470.437,2021-11-11T02:32:10Z
2021-11-11T00:33:47Z,42.805,6.029,13.2994,4.60009,2470.45,2021-11-11T02:35:13Z
2021-11-11T00:36:50Z,42.805,6.029,13.2991,4.60010,2470.46,2021-11-11T02:38:16Z
2021-11-11T00:39:53Z,42.805,6.029,13.2992,4.60010,2470.45,2021-11-11T02:41:19Z
2021-11-11T00:42:57Z,42.805,6.029,13.2991,4.60010,2470.483,2021-11-11T02:44:22Z
2021-11-11T00:46:00Z,42.805,6.029,13.2993,4.60011,2470.46,2021-11-11T02:47:25Z
2021-11-11T00:49:03Z,42.805,6.029,13.2992,4.60010,2470.483,2021-11-11T02:50:28Z
2021-11-11T00:52:06Z,42.805,6.029,13.2995,4.60010,2470.46,2021-11-11T02:53:32Z
2021-11-11T00:55:09Z,42.805,6.029,13.2989,4.60010,2470.437,2021-11-11T02:56:35Z
2021-11-11T00:58:12Z,42.805,6.029,13.2992,4.60010,2470.437,2021-11-11T02:59:38Z
2021-11-11T01:01:15Z,42.805,6.029,13.2991,4.60009,2470.413,2021-11-11T03:02:41Z
2021-11-11T01:04:18Z,42.805,6.029,13.2992,4.60009,2470.437,2021-11-11T03:05:44Z
2021-11-11T01:07:22Z,42.805,6.029,13.2992,4.60009,2470.474,2021-11-11T03:08:47Z
2021-11-11T01:10:25Z,42.805,6.029,13.2990,4.60009,2470.474,2021-11-11T03:11:50Z
2021-11-11T01:13:28Z,42.805,6.029,13.2990,4.60010,2470.437,2021-11-11T03:14:53Z
2021-11-11T01:16:31Z,42.805,6.029,13.2992,4.60009,2470.427,2021-11-11T03:17:57Z
2021-11-11T01:19:34Z,42.805,6.029,13.2992,4.60011,2470.437,2021-11-11T03:21:00Z
2021-11-11T01:22:37Z,42.805,6.029,13.2991,4.60011,2470.46,2021-11-11T03:24:03Z
2021-11-11T01:25:40Z,42.805,6.029,13.2987,4.60011,2470.437,2021-11-11T03:27:06Z
2021-11-11T01:28:43Z,42.805,6.029,13.2990,4.60010,2470.45,2021-11-11T03:30:09Z
2021-11-11T01:31:46Z,42.805,6.029,13.2991,4.60010,2470.45,2021-11-11T03:33:12Z
2021-11-11T01:34:50Z,42.805,6.029,13.2990,4.60009,2470.437,2021-11-11T03:36:15Z
2021-11-11T01:37:53Z,42.805,6.029,13.2991,4.60009,2470.46,2021-11-11T03:39:18Z
2021-11-11T01:40:56Z,42.805,6.029,13.2991,4.60011,2470.46,2021-11-11T03:42:21Z
2021-11-11T01:43:59Z,42.805,6.029,13.2991,4.60009,2470.45,2021-11-11T03:45:25Z
2021-11-11T01:47:02Z,42.805,6.029,13.2990,4.60009,2470.474,2021-11-11T03:48:28Z
2021-11-11T01:50:05Z,42.805,6.029,13.2990,4.60009,2470.46,2021-11-11T03:51:31Z
2021-11-11T01:53:08Z,42.805,6.029,13.2993,4.60012,2470.474,2021-11-11T03:54:34Z
2021-11-11T01:56:11Z,42.805,6.029,13.2993,4.60009,2470.437,2021-11-11T03:57:37Z
2021-11-11T01:59:15Z,42.805,6.029,13.2988,4.60010,2470.46,2021-11-11T04:00:40Z
2021-11-11T02:02:18Z,42.805,6.029,13.2992,4.60010,2470.437,2021-11-11T04:03:43Z
2021-11-11T02:05:21Z,42.805,6.029,13.2993,4.60009,2470.45,2021-11-11T04:06:46Z
2021-11-11T02:08:24Z,42.805,6.029,13.2991,4.60011,2470.437,2021-11-11T04:09:50Z
2021-11-11T02:11:27Z,42.805,6.029,13.2991,4.60010,2470.437,2021-11-11T04:12:53Z
2021-11-11T02:14:30Z,42.805,6.029,13.2987,4.60009,2470.427,2021-11-11T04:15:56Z
2021-11-11T02:17:33Z,42.805,6.029,13.2990,4.60009,2470.437,2021-11-11T04:18:59Z
2021-11-11T02:20:36Z,42.805,6.029,13.2993,4.60010,2470.413,2021-11-11T04:22:02Z
2021-11-11T02:23:40Z,42.805,6.029,13.2994,4.60011,2470.46,2021-11-11T04:25:05Z
2021-11-11T02:26:43Z,42.805,6.029,13.2988,4.60009,2470.437,2021-11-11T04:28:08Z
2021-11-11T02:29:46Z,42.805,6.029,13.2991,4.60012,2470.404,2021-11-11T04:31:11Z
2021-11-11T02:32:49Z,42.805,6.029,13.2990,4.60010,2470.437,2021-11-11T04:34:15Z
2021-11-11T02:35:52Z,42.805,6.029,13.2990,4.60009,2470.45,2021-11-11T04:37:18Z
2021-11-11T02:38:55Z,42.805,6.029,13.2989,4.60009,2470.413,2021-11-11T04:40:21Z
2021-11-11T02:41:58Z,42.805,6.029,13.2989,4.60011,2470.413,2021-11-11T04:43:24Z
2021-11-11T02:45:01Z,42.805,6.029,13.2988,4.60011,2470.413,2021-11-11T04:46:27Z
2021-11-11T02:48:05Z,42.805,6.029,13.2991,4.60010,2470.427,2021-11-11T04:49:30Z
2021-11-11T02:51:08Z,42.805,6.029,13.2989,4.60010,2470.45,2021-11-11T04:52:33Z
2021-11-11T02:54:11Z,42.805,6.029,13.2990,4.60009,2470.437,2021-11-11T04:55:36Z
2021-11-11T02:57:14Z,42.805,6.029,13.2991,4.60009,2470.46,2021-11-11T04:58:40Z
2021-11-11T03:00:17Z,42.805,6.029,13.2993,4.60009,2470.437,2021-11-11T05:01:43Z
2021-11-11T03:03:20Z,42.805,6.029,13.2991,4.60009,2470.413,2021-11-11T05:04:46Z
2021-11-11T03:06:23Z,42.805,6.029,13.2991,4.60009,2470.45,2021-11-11T05:07:49Z
2021-11-11T03:09:26Z,42.805,6.029,13.2990,4.60009,2470.45,2021-11-11T05:10:52Z
2021-11-11T03:12:30Z,42.805,6.029,13.2993,4.60009,2470.427,2021-11-11T05:13:55Z
2021-11-11T03:15:33Z,42.805,6.029,13.2990,4.60009,2470.437,2021-11-11T05:16:58Z
2021-11-11T03:18:36Z,42.805,6.029,13.2989,4.60009,2470.437,2021-11-11T05:20:01Z
2021-11-11T03:21:39Z,42.805,6.029,13.2991,4.60010,2470.413,2021-11-11T05:23:05Z
2021-11-11T03:24:42Z,42.805,6.029,13.2996,4.60009,2470.366,2021-11-11T05:26:08Z
2021-11-11T03:27:45Z,42.805,6.029,13.2988,4.60009,2470.437,2021-11-11T05:29:11Z
2021-11-11T03:30:48Z,42.805,6.029,13.2992,4.60009,2470.45,2021-11-11T05:32:14Z
2021-11-11T03:33:51Z,42.805,6.029,13.2990,4.60009,2470.413,2021-11-11T05:35:17Z
2021-11-11T03:36:54Z,42.805,6.029,13.2986,4.60008,2470.437,2021-11-11T05:38:20Z
2021-11-11T03:39:58Z,42.805,6.029,13.2986,4.60009,2470.437,2021-11-11T05:41:23Z
2021-11-11T03:43:01Z,42.805,6.029,13.2993,4.60008,2470.413,2021-11-11T05:44:26Z
2021-11-11T03:46:04Z,42.805,6.029,13.2990,4.60008,2470.427,2021-11-11T05:47:30Z
2021-11-11T03:49:07Z,42.805,6.029,13.2993,4.60008,2470.413,2021-11-11T05:50:33Z
2021-11-11T03:52:10Z,42.805,6.029,13.2988,4.60011,2470.413,2021-11-11T05:53:36Z
2021-11-11T03:55:13Z,42.805,6.029,13.2992,4.60009,2470.39,2021-11-11T05:56:39Z
2021-11-11T03:58:16Z,42.805,6.029,13.2992,4.60008,2470.45,2021-11-11T05:59:42Z
2021-11-11T04:01:20Z,42.805,6.029,13.2990,4.60011,2470.427,2021-11-11T06:02:45Z
2021-11-11T04:04:23Z,42.805,6.029,13.2991,4.60009,2470.413,2021-11-11T06:05:48Z
2021-11-11T04:07:26Z,42.805,6.029,13.2991,4.60010,2470.413,2021-11-11T06:08:51Z
2021-11-11T04:10:29Z,42.805,6.029,13.2993,4.60009,2470.427,2021-11-11T06:11:55Z
2021-11-11T04:13:32Z,42.805,6.029,13.2989,4.60010,2470.39,2021-11-11T06:14:58Z
2021-11-11T04:16:35Z,42.805,6.029,13.2989,4.60008,2470.413,2021-11-11T06:18:01Z
2021-11-11T04:19:38Z,42.805,6.029,13.2987,4.60013,2470.413,2021-11-11T06:21:04Z
2021-11-11T04:22:41Z,42.805,6.029,13.2990,4.60008,2470.404,2021-11-11T06:24:07Z
2021-11-11T04:25:44Z,42.805,6.029,13.2990,4.60011,2470.427,2021-11-11T06:27:10Z
2021-11-11T04:28:48Z,42.805,6.029,13.2987,4.60009,2470.413,2021-11-11T06:30:13Z
2021-11-11T04:31:51Z,42.805,6.029,13.2993,4.60009,2470.413,2021-11-11T06:33:16Z
2021-11-11T04:34:54Z,42.805,6.029,13.2992,4.60009,2470.404,2021-11-11T06:36:20Z
2021-11-11T04:37:57Z,42.805,6.029,13.2988,4.60009,2470.413,2021-11-11T06:39:23Z
2021-11-11T04:41:00Z,42.805,6.029,13.2993,4.60009,2470.427,2021-11-11T06:42:26Z
2021-11-11T04:44:03Z,42.805,6.029,13.2991,4.60009,2470.427,2021-11-11T06:45:29Z
2021-11-11T04:47:06Z,42.805,6.029,13.2993,4.60009,2470.39,2021-11-11T06:48:32Z
2021-11-11T04:50:09Z,42.805,6.029,13.2991,4.60009,2470.39,2021-11-11T06:51:35Z
2021-11-11T04:53:13Z,42.805,6.029,13.2992,4.60009,2470.413,2021-11-11T06:54:38Z
2021-11-11T04:56:16Z,42.805,6.029,13.2990,4.60009,2470.376,2021-11-11T06:57:41Z
2021-11-11T04:59:19Z,42.805,6.029,13.2987,4.60009,2470.413,2021-11-11T07:00:44Z
2021-11-11T05:02:22Z,42.805,6.029,13.2991,4.60007,2470.39,2021-11-11T07:03:48Z
2021-11-11T05:05:25Z,42.805,6.029,13.2994,4.60009,2470.404,2021-11-11T07:06:51Z
2021-11-11T05:08:28Z,42.805,6.029,13.2992,4.60010,2470.413,2021-11-11T07:09:54Z
2021-11-11T05:11:31Z,42.805,6.029,13.2987,4.60011,2470.404,2021-11-11T07:12:57Z
2021-11-11T05:14:34Z,42.805,6.029,13.2991,4.60011,2470.404,2021-11-11T07:16:00Z
2021-11-11T05:17:38Z,42.805,6.029,13.2993,4.60009,2470.366,2021-11-11T07:19:03Z
2021-11-11T05:20:41Z,42.805,6.029,13.2990,4.60009,2470.413,2021-11-11T07:22:06Z
2021-11-11T05:23:44Z,42.805,6.029,13.2987,4.60009,2470.404,2021-11-11T07:25:09Z
2021-11-11T05:26:47Z,42.805,6.029,13.2990,4.60008,2470.39,2021-11-11T07:28:13Z
2021-11-11T05:29:50Z,42.805,6.029,13.2991,4.60009,2470.413,2021-11-11T07:31:16Z
2021-11-11T05:32:53Z,42.805,6.029,13.2990,4.60008,2470.38,2021-11-11T07:34:19Z
2021-11-11T05:35:56Z,42.805,6.029,13.2991,4.60009,2470.39,2021-11-11T07:37:22Z
2021-11-11T05:38:59Z,42.805,6.029,13.2990,4.60010,2470.413,2021-11-11T07:40:25Z
2021-11-11T05:42:03Z,42.805,6.029,13.2993,4.60008,2470.413,2021-11-11T07:43:28Z
2021-11-11T05:45:06Z,42.805,6.029,13.2992,4.60009,2470.413,2021-11-11T07:46:31Z
2021-11-11T05:48:09Z,42.805,6.029,13.2990,4.60009,2470.413,2021-11-11T07:49:34Z
2021-11-11T05:51:12Z,42.805,6.029,13.2989,4.60009,2470.427,2021-11-11T07:52:38Z
2021-11-11T05:54:15Z,42.805,6.029,13.2991,4.60011,2470.413,2021-11-11T07:55:41Z
2021-11-11T05:57:18Z,42.805,6.029,13.2991,4.60009,2470.437,2021-11-11T07:58:44Z
2021-11-11T06:00:21Z,42.805,6.029,13.2991,4.60008,2470.366,2021-11-11T08:01:47Z
2021-11-11T06:03:24Z,42.805,6.029,13.2990,4.60008,2470.366,2021-11-11T08:04:50Z
2021-11-11T06:06:27Z,42.805,6.029,13.2991,4.60008,2470.366,2021-11-11T08:07:53Z
2021-11-11T06:09:31Z,42.805,6.029,13.2989,4.60010,2470.39,2021-11-11T08:10:56Z
2021-11-11T06:12:34Z,42.805,6.029,13.2993,4.60011,2470.39,2021-11-11T08:13:59Z
2021-11-11T06:15:37Z,42.805,6.029,13.2990,4.60009,2470.413,2021-11-11T08:17:02Z
2021-11-11T06:18:40Z,42.805,6.029,13.2990,4.60010,2470.39,2021-11-11T08:20:06Z
2021-11-11T06:21:43Z,42.805,6.029,13.2991,4.60008,2470.39,2021-11-11T08:23:09Z
2021-11-11T06:24:46Z,42.805,6.029,13.2996,4.60008,2470.39,2021-11-11T08:26:12Z
2021-11-11T06:27:49Z,42.805,6.029,13.2990,4.60009,2470.404,2021-11-11T08:29:15Z
2021-11-11T06:30:52Z,42.805,6.029,13.2992,4.60009,2470.39,2021-11-11T08:32:18Z
2021-11-11T06:33:56Z,42.805,6.029,13.2986,4.60009,2470.39,2021-11-11T08:35:21Z
2021-11-11T06:36:59Z,42.805,6.029,13.2991,4.60009,2470.39,2021-11-11T08:38:24Z
2021-11-11T06:40:02Z,42.805,6.029,13.2993,4.60009,2470.39,2021-11-11T08:41:27Z
2021-11-11T06:43:05Z,42.805,6.029,13.2994,4.60008,2470.38,2021-11-11T08:44:31Z
2021-11-11T06:46:08Z,42.805,6.029,13.2987,4.60009,2470.404,2021-11-11T08:47:34Z
2021-11-11T06:49:11Z,42.805,6.029,13.2992,4.60009,2470.413,2021-11-11T08:50:37Z
2021-11-11T06:52:14Z,42.805,6.029,13.2992,4.60010,2470.39,2021-11-11T08:53:40Z
2021-11-11T06:55:17Z,42.805,6.029,13.2989,4.60009,2470.366,2021-11-11T08:56:43Z
2021-11-11T06:58:21Z,42.805,6.029,13.2988,4.60009,2470.404,2021-11-11T08:59:46Z
2021-11-11T07:01:24Z,42.805,6.029,13.2993,4.60008,2470.39,2021-11-11T09:02:49Z
2021-11-11T07:04:27Z,42.805,6.029,13.2988,4.60011,2470.437,2021-11-11T09:05:52Z
2021-11-11T07:07:30Z,42.805,6.029,13.2991,4.60010,2470.39,2021-11-11T09:08:56Z
2021-11-11T07:10:33Z,42.805,6.029,13.2989,4.60008,2470.38,2021-11-11T09:11:59Z
2021-11-11T07:13:36Z,42.805,6.029,13.2987,4.60008,2470.413,2021-11-11T09:15:02Z
2021-11-11T07:16:39Z,42.805,6.029,13.2991,4.60009,2470.413,2021-11-11T09:18:05Z
2021-11-11T07:19:42Z,42.805,6.029,13.2987,4.60008,2470.437,2021-11-11T09:21:08Z
2021-11-11T07:22:46Z,42.805,6.029,13.2987,4.60009,2470.413,2021-11-11T09:24:11Z
2021-11-11T07:25:49Z,42.805,6.029,13.2994,4.60009,2470.413,2021-11-11T09:27:14Z
2021-11-11T07:28:52Z,42.805,6.029,13.2991,4.60009,2470.413,2021-11-11T09:30:17Z
2021-11-11T07:31:55Z,42.805,6.029,13.2987,4.60009,2470.413,2021-11-11T09:33:21Z
2021-11-11T07:34:58Z,42.805,6.029,13.2993,4.60011,2470.413,2021-11-11T09:36:24Z
2021-11-11T07:38:01Z,42.805,6.029,13.2994,4.60009,2470.427,2021-11-11T09:39:27Z
2021-11-11T07:41:04Z,42.805,6.029,13.2992,4.60009,2470.46,2021-11-11T09:42:30Z
2021-11-11T07:44:07Z,42.805,6.029,13.2990,4.60009,2470.437,2021-11-11T09:45:33Z
2021-11-11T07:47:11Z,42.805,6.029,13.2993,4.60009,2470.413,2021-11-11T09:48:36Z
2021-11-11T07:50:14Z,42.805,6.029,13.2991,4.60008,2470.413,2021-11-11T09:51:39Z
2021-11-11T07:53:17Z,42.805,6.029,13.2991,4.60009,2470.413,2021-11-11T09:54:42Z
2021-11-11T07:56:20Z,42.805,6.029,13.2990,4.60010,2470.437,2021-11-11T09:57:46Z
2021-11-11T07:59:23Z,42.805,6.029,13.2993,4.60009,2470.474,2021-11-11T10:00:49Z
2021-11-11T08:02:26Z,42.805,6.029,13.2993,4.60009,2470.427,2021-11-11T10:03:52Z
2021-11-11T08:05:29Z,42.805,6.029,13.2991,4.60009,2470.46,2021-11-11T10:06:55Z
2021-11-11T08:08:32Z,42.805,6.029,13.2992,4.60009,2470.45,2021-11-11T10:09:58Z
2021-11-11T08:11:36Z,42.805,6.029,13.2991,4.60010,2470.46,2021-11-11T10:13:01Z
2021-11-11T08:14:39Z,42.805,6.029,13.2990,4.60008,2470.437,2021-11-11T10:16:04Z
2021-11-11T08:17:42Z,42.805,6.029,13.2990,4.60009,2470.413,2021-11-11T10:19:07Z
2021-11-11T08:20:45Z,42.805,6.029,13.2991,4.60009,2470.437,2021-11-11T10:22:11Z
2021-11-11T08:23:48Z,42.805,6.029,13.2994,4.60010,2470.437,2021-11-11T10:25:14Z
2021-11-11T08:26:51Z,42.805,6.029,13.2993,4.60009,2470.437,2021-11-11T10:28:17Z
2021-11-11T08:29:54Z,42.805,6.029,13.2991,4.60013,2470.413,2021-11-11T10:31:20Z
2021-11-11T08:32:57Z,42.805,6.029,13.2988,4.60009,2470.437,2021-11-11T10:34:23Z
2021-11-11T08:36:01Z,42.805,6.029,13.2992,4.60009,2470.474,2021-11-11T10:37:26Z
2021-11-11T08:39:04Z,42.805,6.029,13.2989,4.60009,2470.437,2021-11-11T10:40:29Z
2021-11-11T08:42:07Z,42.805,6.029,13.2990,4.60009,2470.437,2021-11-11T10:43:32Z
2021-11-11T08:45:10Z,42.805,6.029,13.2988,4.60009,2470.46,2021-11-11T10:46:36Z
2021-11-11T08:48:13Z,42.805,6.029,13.2991,4.60009,2470.46,2021-11-11T10:49:39Z
2021-11-11T08:51:16Z,42.805,6.029,13.2993,4.60008,2470.46,2021-11-11T10:52:42Z
2021-11-11T08:54:19Z,42.805,6.029,13.2993,4.60009,2470.46,2021-11-11T10:55:45Z
2021-11-11T08:57:23Z,42.805,6.029,13.2991,4.60009,2470.46,2021-11-11T10:58:48Z
2021-11-11T09:00:26Z,42.805,6.029,13.2991,4.60011,2470.46,2021-11-11T11:01:51Z
2021-11-11T09:03:29Z,42.805,6.029,13.2992,4.60009,2470.46,2021-11-11T11:04:54Z
2021-11-11T09:06:32Z,42.805,6.029,13.2993,4.60010,2470.46,2021-11-11T11:07:58Z
2021-11-11T09:09:35Z,42.805,6.029,13.2993,4.60010,2470.46,2021-11-11T11:11:01Z
2021-11-11T09:12:38Z,42.805,6.029,13.2990,4.60009,2470.46,2021-11-11T11:14:04Z
2021-11-11T09:15:41Z,42.805,6.029,13.2992,4.60009,2470.437,2021-11-11T11:17:07Z
2021-11-11T09:18:44Z,42.805,6.029,13.2990,4.60010,2470.507,2021-11-11T11:20:10Z
2021-11-11T09:21:47Z,42.805,6.029,13.2991,4.60009,2470.474,2021-11-11T11:23:13Z
2021-11-11T09:24:51Z,42.805,6.029,13.2991,4.60009,2470.46,2021-11-11T11:26:16Z
2021-11-11T09:27:54Z,42.805,6.029,13.2991,4.60009,2470.497,2021-11-11T11:29:19Z
2021-11-11T09:30:57Z,42.805,6.029,13.2990,4.60010,2470.53,2021-11-11T11:32:23Z
2021-11-11T09:34:00Z,42.805,6.029,13.2992,4.60009,2470.497,2021-11-11T11:35:26Z
2021-11-11T09:37:03Z,42.805,6.029,13.2993,4.60009,2470.483,2021-11-11T11:38:29Z
2021-11-11T09:40:06Z,42.805,6.029,13.2992,4.60010,2470.497,2021-11-11T11:41:32Z
2021-11-11T09:43:09Z,42.805,6.029,13.2994,4.60009,2470.497,2021-11-11T11:44:35Z
2021-11-11T09:46:13Z,42.805,6.029,13.2993,4.60013,2470.497,2021-11-11T11:47:38Z
2021-11-11T09:49:16Z,42.805,6.029,13.2992,4.60009,2470.483,2021-11-11T11:50:41Z
2021-11-11T09:52:19Z,42.805,6.029,13.2990,4.60010,2470.483,2021-11-11T11:53:44Z
2021-11-11T09:55:22Z,42.805,6.029,13.2993,4.60009,2470.544,2021-11-11T11:56:48Z
2021-11-11T09:58:25Z,42.805,6.029,13.2991,4.60010,2470.53,2021-11-11T11:59:51Z
2021-11-11T10:01:28Z,42.805,6.029,13.2991,4.60009,2470.52,2021-11-11T12:02:54Z
2021-11-11T10:04:31Z,42.805,6.029,13.2993,4.60011,2470.567,2021-11-11T12:05:57Z
2021-11-11T10:07:34Z,42.805,6.029,13.2992,4.60009,2470.52,2021-11-11T12:09:00Z
2021-11-11T10:10:38Z,42.805,6.029,13.2991,4.60009,2470.507,2021-11-11T12:12:03Z
2021-11-11T10:13:41Z,42.805,6.029,13.2991,4.60011,2470.53,2021-11-11T12:15:06Z
2021-11-11T10:16:44Z,42.805,6.029,13.2991,4.60009,2470.52,2021-11-11T12:18:09Z
2021-11-11T10:19:47Z,42.805,6.029,13.2994,4.60010,2470.544,2021-11-11T12:21:13Z
2021-11-11T10:22:50Z,42.805,6.029,13.2989,4.60010,2470.53,2021-11-11T12:24:16Z
2021-11-11T10:25:53Z,42.805,6.029,13.2993,4.60009,2470.53,2021-11-11T12:27:19Z
2021-11-11T10:28:56Z,42.805,6.029,13.2996,4.60010,2470.497,2021-11-11T12:30:22Z
2021-11-11T10:31:59Z,42.805,6.029,13.2993,4.60009,2470.53,2021-11-11T12:33:25Z
2021-11-11T10:35:03Z,42.805,6.029,13.2993,4.60011,2470.544,2021-11-11T12:36:28Z
2021-11-11T10:38:06Z,42.805,6.029,13.2990,4.60009,2470.544,2021-11-11T12:39:31Z
2021-11-11T10:41:09Z,42.805,6.029,13.2990,4.60010,2470.567,2021-11-11T12:42:34Z
2021-11-11T10:44:12Z,42.805,6.029,13.2993,4.60009,2470.53,2021-11-11T12:45:38Z
2021-11-11T10:47:15Z,42.805,6.029,13.2993,4.60009,2470.52,2021-11-11T12:48:41Z
2021-11-11T10:50:18Z,42.805,6.029,13.2992,4.60010,2470.507,2021-11-11T12:51:44Z
2021-11-11T10:53:21Z,42.805,6.029,13.2991,4.60011,2470.553,2021-11-11T12:54:47Z
2021-11-11T10:56:24Z,42.805,6.029,13.2994,4.60011,2470.567,2021-11-11T12:57:50Z
2021-11-11T10:59:28Z,42.805,6.029,13.2991,4.60011,2470.544,2021-11-11T13:00:53Z
2021-11-11T11:02:31Z,42.805,6.029,13.2991,4.60015,2470.539,2021-11-11T13:03:56Z
2021-11-11T11:05:34Z,42.805,6.029,13.2990,4.60011,2470.553,2021-11-11T13:07:00Z
2021-11-11T11:08:37Z,42.805,6.029,13.2993,4.60010,2470.53,2021-11-11T13:10:03Z
2021-11-11T11:11:40Z,42.805,6.029,13.2993,4.60010,2470.53,2021-11-11T13:13:06Z
2021-11-11T11:14:43Z,42.805,6.029,13.2993,4.60009,2470.544,2021-11-11T13:16:09Z
2021-11-11T11:17:46Z,42.805,6.029,13.2992,4.60014,2470.567,2021-11-11T13:19:12Z
2021-11-11T11:20:49Z,42.805,6.029,13.2994,4.60011,2470.53,2021-11-11T13:22:15Z
2021-11-11T11:23:53Z,42.805,6.029,13.2991,4.60009,2470.553,2021-11-11T13:25:18Z
2021-11-11T11:26:56Z,42.805,6.029,13.2991,4.60009,2470.567,2021-11-11T13:28:21Z
2021-11-11T11:29:59Z,42.805,6.029,13.2993,4.60010,2470.567,2021-11-11T13:31:25Z
2021-11-11T11:33:02Z,42.805,6.029,13.2994,4.60010,2470.591,2021-11-11T13:34:28Z
2021-11-11T11:36:05Z,42.805,6.029,13.2993,4.60010,2470.544,2021-11-11T13:37:31Z
2021-11-11T11:39:08Z,42.805,6.029,13.2993,4.60011,2470.516,2021-11-11T13:40:34Z
2021-11-11T11:42:11Z,42.805,6.029,13.2992,4.60010,2470.553,2021-11-11T13:43:37Z
2021-11-11T11:45:15Z,42.805,6.029,13.2990,4.60009,2470.553,2021-11-11T13:46:40Z
2021-11-11T11:48:18Z,42.805,6.029,13.2994,4.60010,2470.53,2021-11-11T13:49:43Z
2021-11-11T11:51:21Z,42.805,6.029,13.2991,4.60010,2470.553,2021-11-11T13:52:46Z
2021-11-11T11:54:24Z,42.805,6.029,13.2996,4.60010,2470.567,2021-11-11T13:55:50Z
2021-11-11T11:57:27Z,42.805,6.029,13.2992,4.60010,2470.553,2021-11-11T13:58:53Z
2021-11-11T12:00:30Z,42.805,6.029,13.2991,4.60009,2470.577,2021-11-11T14:01:56Z
2021-11-11T12:03:33Z,42.805,6.029,13.2992,4.60013,2470.567,2021-11-11T14:04:59Z
2021-11-11T12:06:36Z,42.805,6.029,13.2993,4.60013,2470.553,2021-11-11T14:08:02Z
2021-11-11T12:09:40Z,42.805,6.029,13.2993,4.60011,2470.553,2021-11-11T14:11:05Z
2021-11-11T12:12:43Z,42.805,6.029,13.2996,4.60010,2470.553,2021-11-11T14:14:08Z
2021-11-11T12:15:46Z,42.805,6.029,13.2993,4.60011,2470.577,2021-11-11T14:17:11Z
2021-11-11T12:18:49Z,42.805,6.029,13.2998,4.60010,2470.577,2021-11-11T14:20:15Z
2021-11-11T12:21:52Z,42.805,6.029,13.2993,4.60011,2470.567,2021-11-11T14:23:18Z
2021-11-11T12:24:55Z,42.805,6.029,13.2993,4.60010,2470.591,2021-11-11T14:26:21Z
2021-11-11T12:27:58Z,42.805,6.029,13.2993,4.60009,2470.577,2021-11-11T14:29:24Z
2021-11-11T12:31:01Z,42.805,6.029,13.2990,4.60011,2470.577,2021-11-11T14:32:27Z
2021-11-11T12:34:05Z,42.805,6.029,13.2990,4.60010,2470.553,2021-11-11T14:35:30Z
2021-11-11T12:37:08Z,42.805,6.029,13.2996,4.60010,2470.577,2021-11-11T14:38:33Z
2021-11-11T12:40:11Z,42.805,6.029,13.2993,4.60010,2470.577,2021-11-11T14:41:37Z
2021-11-11T12:43:14Z,42.805,6.029,13.2990,4.60010,2470.567,2021-11-11T14:44:40Z
2021-11-11T12:46:17Z,42.805,6.029,13.2996,4.60014,2470.553,2021-11-11T14:47:43Z
2021-11-11T12:49:20Z,42.805,6.029,13.2990,4.60010,2470.6,2021-11-11T14:50:46Z
2021-11-11T12:52:23Z,42.805,6.029,13.2993,4.60011,2470.553,2021-11-11T14:53:49Z
2021-11-11T12:55:26Z,42.805,6.029,13.2990,4.60012,2470.591,2021-11-11T14:56:52Z
2021-11-11T12:58:30Z,42.805,6.029,13.2993,4.60011,2470.553,2021-11-11T14:59:55Z
2021-11-11T13:01:33Z,42.805,6.029,13.2994,4.60011,2470.577,2021-11-11T15:02:58Z
2021-11-11T13:04:36Z,42.805,6.029,13.2991,4.60011,2470.577,2021-11-11T15:06:02Z
2021-11-11T13:07:39Z,42.805,6.029,13.2990,4.60011,2470.6,2021-11-11T15:09:05Z
2021-11-11T13:10:42Z,42.805,6.029,13.2992,4.60011,2470.577,2021-11-11T15:12:08Z
2021-11-11T13:13:45Z,42.805,6.029,13.2992,4.60011,2470.553,2021-11-11T15:15:11Z
2021-11-11T13:16:48Z,42.805,6.029,13.2994,4.60011,2470.6,2021-11-11T15:18:14Z
2021-11-11T13:19:51Z,42.805,6.029,13.2992,4.60011,2470.577,2021-11-11T15:21:17Z
2021-11-11T13:22:55Z,42.805,6.029,13.2993,4.60010,2470.53,2021-11-11T15:24:20Z
2021-11-11T13:25:58Z,42.805,6.029,13.2992,4.60010,2470.567,2021-11-11T15:27:23Z
2021-11-11T13:29:01Z,42.805,6.029,13.2992,4.60010,2470.563,2021-11-11T15:30:27Z
2021-11-11T13:32:04Z,42.805,6.029,13.2991,4.60013,2470.553,2021-11-11T15:33:30Z
2021-11-11T13:35:07Z,42.805,6.029,13.2993,4.60011,2470.591,2021-11-11T15:36:33Z
2021-11-11T13:38:10Z,42.805,6.029,13.2991,4.60011,2470.567,2021-11-11T15:39:36Z
2021-11-11T13:41:13Z,42.805,6.029,13.2991,4.60011,2470.567,2021-11-11T15:42:39Z
2021-11-11T13:44:16Z,42.805,6.029,13.2995,4.60011,2470.577,2021-11-11T15:45:42Z
2021-11-11T13:47:20Z,42.805,6.029,13.2990,4.60011,2470.53,2021-11-11T15:48:45Z
2021-11-11T13:50:23Z,42.805,6.029,13.2992,4.60010,2470.553,2021-11-11T15:51:48Z
2021-11-11T13:53:26Z,42.805,6.029,13.2990,4.60009,2470.553,2021-11-11T15:54:52Z
2021-11-11T13:56:29Z,42.805,6.029,13.2991,4.60010,2470.553,2021-11-11T15:57:55Z
2021-11-11T13:59:32Z,42.805,6.029,13.2991,4.60011,2470.577,2021-11-11T16:00:58Z
2021-11-11T14:02:35Z,42.805,6.029,13.2987,4.60011,2470.553,2021-11-11T16:04:01Z
2021-11-11T14:05:38Z,42.805,6.029,13.2993,4.60010,2470.591,2021-11-11T16:07:04Z
2021-11-11T14:08:42Z,42.805,6.029,13.2992,4.60010,2470.591,2021-11-11T16:10:07Z
2021-11-11T14:11:45Z,42.805,6.029,13.2990,4.60009,2470.553,2021-11-11T16:13:10Z
2021-11-11T14:14:48Z,42.805,6.029,13.2993,4.60009,2470.591,2021-11-11T16:16:13Z
2021-11-11T14:17:51Z,42.805,6.029,13.2993,4.60009,2470.567,2021-11-11T16:19:17Z
2021-11-11T14:20:54Z,42.805,6.029,13.2990,4.60015,2470.577,2021-11-11T16:22:20Z
2021-11-11T14:23:57Z,42.805,6.029,13.2997,4.60013,2470.553,2021-11-11T16:25:23Z
2021-11-11T14:27:00Z,42.805,6.029,13.2990,4.60009,2470.577,2021-11-11T16:28:26Z
2021-11-11T14:30:03Z,42.805,6.029,13.2993,4.60009,2470.553,2021-11-11T16:31:29Z
2021-11-11T14:33:07Z,42.805,6.029,13.2992,4.60009,2470.553,2021-11-11T16:34:32Z
2021-11-11T14:36:10Z,42.805,6.029,13.2991,4.60010,2470.567,2021-11-11T16:37:35Z
2021-11-11T14:39:13Z,42.805,6.029,13.2993,4.60009,2470.577,2021-11-11T16:40:38Z
2021-11-11T14:42:16Z,42.805,6.029,13.2990,4.60011,2470.553,2021-11-11T16:43:42Z
2021-11-11T14:45:19Z,42.805,6.029,13.2991,4.60009,2470.577,2021-11-11T16:46:45Z
2021-11-11T14:48:22Z,42.805,6.029,13.2993,4.60010,2470.516,2021-11-11T16:49:48Z
2021-11-11T14:51:25Z,42.805,6.029,13.2990,4.60009,2470.567,2021-11-11T16:52:51Z
2021-11-11T14:54:28Z,42.805,6.029,13.2993,4.60010,2470.553,2021-11-11T16:55:54Z
2021-11-11T14:57:32Z,42.805,6.029,13.2991,4.60009,2470.53,2021-11-11T16:58:57Z
2021-11-11T15:00:35Z,42.805,6.029,13.2997,4.60010,2470.53,2021-11-11T17:02:00Z